Location: Hilton Head Island
(32.2163°N, 80.7526°W)
Time: 11:53:18
(UTC-05:00)

Explorer 7 - Visible Passes

Search period start: 16 February 2026 00:00
Search period end: 26 February 2026 00:00
Orbit: 431 x 545 km, 50.2° (Epoch: 16 February)

Date Brightness Start Highest point End Pass type
(mag) Time Alt. Az. Time Alt. Az. Time Alt. Az.
20 Feb 9.1 20:17:25 10° NNW 20:18:22 16° NNW 20:18:22 16° NNW visible
21 Feb 8.0 19:51:40 10° NNW 19:54:02 27° N 19:54:02 27° N visible
22 Feb 7.5 19:25:54 10° NNW 19:29:17 30° NE 19:29:47 29° NE visible
23 Feb 7.7 19:00:06 10° NNW 19:03:25 29° NE 19:05:40 17° E visible
23 Feb 9.2 20:38:25 10° WNW 20:40:04 21° W 20:40:04 21° W visible
24 Feb 8.2 20:12:29 10° WNW 20:15:54 31° SW 20:16:06 31° SW visible
25 Feb 8.2 19:46:32 10° WNW 19:49:58 33° SW 19:52:19 17° S visible
